Location: Hackberry
(29.5783°N, 96.8797°W)
Time: 03:56:31
(UTC+00:00)

Explorer 11/Cluster Stage 4 - Pass Details

Date: 10 November 2024
Orbit: 464 x 1202 km, 28.8° (Epoch: 03 December)

Event Time Altitude Azimuth Distance (km) Brightness Sun altitude
Exits shadow 10:41:28 25° 155° (SSE) 1,149 7.7 -27.7°
Drops below altitude 10° 10:44:28 10° 104° (ESE) 1,728 9.3 -27.1°
Sets 10:46:49 0° 90° (E) 2,548 10.5 -26.5°
